Stations météo

réclame
Mon MeteoGroup
Dunkerque, France (7010): Température de l'air & dewpoint: 16.10.2018 16:00:00 - 22.10.2018 16:00:00 (CEST)Dunkerque, France (7010): Vitesse du vent & gusts: 16.10.2018 16:00:00 - 22.10.2018 16:00:00 (CEST)Dunkerque, France (7010): Direction du vent: 16.10.2018 16:00:00 - 22.10.2018 16:00:00 (CEST)Dunkerque, France (7010): reduced air pressure: 16.10.2018 16:00:00 - 22.10.2018 16:00:00 (CEST)Dunkerque, France (7010): visibility: 16.10.2018 16:00:00 - 22.10.2018 16:00:00 (CEST)Dunkerque, France (7010): Quantités de précipitations: 16.10.2018 16:00:00 - 22.10.2018 16:00:00 (CEST)
Date & Time tt [°C] td [°C] ff [km/h] ff [knt] fx [km/h] fx [knt] dd ppp [hPa] vv [km] rr [mm]
22.10.2018 16:00:00 14,7 6,5 23 13 40 21 NNE 1035,2 - 0,0
22.10.2018 15:00:00 14,2 6,5 30 16 42 23 NNE 1035,5 - 0,0
22.10.2018 14:00:00 14,4 6,5 24 13 44 24 NNE 1035,1 10 0,0
22.10.2018 13:00:00 14,2 6,3 28 15 43 23 NNE 1035,0 - 0,0
22.10.2018 12:00:00 13,9 6,5 30 16 46 25 NNE 1034,9 - 0,0
22.10.2018 11:00:00 13,5 6,8 29 15 46 25 N 1034,6 10 0,0
22.10.2018 10:00:00 13,7 7,0 33 18 51 28 NNE 1033,8 - 0,0
22.10.2018 09:00:00 13,8 8,0 34 18 52 28 N 1032,7 - 0,0
22.10.2018 08:00:00 14,0 8,6 37 20 57 31 N 1031,7 8 0,0
22.10.2018 07:00:00 14,1 10,1 32 17 50 27 NNE 1030,8 - 0,0
22.10.2018 06:00:00 13,2 11,4 31 17 53 29 N 1030,5 - 0,0
22.10.2018 05:00:00 13,9 11,6 36 19 52 28 NNE 1029,8 8 0,0
22.10.2018 04:00:00 14,2 11,9 38 21 54 29 NNE 1029,2 - 0,0
22.10.2018 03:00:00 14,9 13,1 32 18 47 26 N 1028,6 - 0,0
22.10.2018 02:00:00 16,0 13,7 29 16 42 23 N 1028,2 12 0,0
22.10.2018 01:00:00 16,2 13,5 17 9 26 14 N 1027,9 - 0,0
22.10.2018 00:00:00 15,4 13,2 11 6 19 10 NW 1027,5 - 0,0
21.10.2018 23:00:00 15,4 13,8 14 7 23 13 W 1027,2 12 0,0
21.10.2018 22:00:00 15,3 13,3 16 9 25 14 W 1027,0 - 0,0
21.10.2018 21:00:00 15,3 13,0 19 10 26 14 W 1027,0 - 0,0
21.10.2018 20:00:00 15,2 11,8 4 2 8 4 WNW 1026,8 8 0,0
21.10.2018 19:00:00 15,2 10,8 4 2 7 4 NW 1026,4 - 0,0
21.10.2018 18:00:00 16,3 11,4 6 3 14 8 NW 1026,4 - 0,0
21.10.2018 17:00:00 17,3 12,8 7 4 15 8 NW 1026,7 - 0,0
21.10.2018 16:00:00 16,5 12,5 4 2 13 7 NNW 1027,2 - 0,0
21.10.2018 15:00:00 17,6 12,3 10 5 17 9 NW 1027,7 - 0,0
21.10.2018 14:00:00 17,0 11,9 8 4 11 6 NW 1028,1 8 0,0
21.10.2018 13:00:00 16,9 10,0 7 4 15 8 NW 1028,5 - 0,0
21.10.2018 12:00:00 16,4 8,9 7 4 13 7 SSW 1029,0 - 0,0
21.10.2018 11:00:00 14,4 7,9 9 5 13 7 S 1029,2 - 0,0
21.10.2018 10:00:00 12,1 7,8 9 5 13 7 S 1029,2 - 0,0
21.10.2018 09:00:00 10,8 7,7 9 5 14 7 S 1028,9 - 0,0
21.10.2018 08:00:00 10,8 7,7 8 5 13 7 S 1028,8 10 0,0
21.10.2018 07:00:00 11,8 7,9 10 5 13 7 S 1028,7 - 0,0
21.10.2018 06:00:00 11,9 7,8 10 5 14 7 SSW 1029,1 - 0,0
21.10.2018 05:00:00 11,9 8,2 9 5 14 8 SSW 1029,2 10 0,0
21.10.2018 04:00:00 11,6 8,3 10 5 14 8 S 1029,9 - 0,0
21.10.2018 03:00:00 11,2 9,1 9 5 14 8 SSW 1030,3 - 0,0
21.10.2018 02:00:00 11,0 8,9 9 5 13 7 S 1030,6 10 0,0
21.10.2018 01:00:00 11,2 9,1 5 3 8 4 SSW 1030,9 - 0,0
21.10.2018 00:00:00 11,6 9,5 7 4 10 5 S 1031,2 - 0,0
20.10.2018 23:00:00 12,0 9,7 6 3 8 4 S 1031,4 8 0,0
20.10.2018 22:00:00 12,6 10,0 5 3 8 4 S 1031,3 - 0,0
20.10.2018 21:00:00 12,9 9,7 5 3 6 3 ESE 1031,4 - 0,0
20.10.2018 20:00:00 13,3 9,0 3 1 6 3 ESE 1031,4 - 0,0
20.10.2018 19:00:00 14,0 9,2 4 2 8 4 N 1031,1 - 0,0
20.10.2018 18:00:00 14,8 9,2 5 3 12 6 NNE 1030,8 - 0,0
20.10.2018 17:00:00 14,8 9,6 8 4 16 9 N 1031,0 13 0,0
20.10.2018 16:00:00 15,1 9,7 11 6 16 9 NNW 1031,5 - 0,0
20.10.2018 15:00:00 15,2 9,5 10 5 15 8 NNW 1031,5 - 0,0
20.10.2018 14:00:00 15,6 8,3 9 5 13 7 NW 1032,0 13 0,0
20.10.2018 13:00:00 16,4 8,6 8 4 16 9 S 1032,3 - 0,0
20.10.2018 12:00:00 15,0 8,2 8 5 16 9 S 1032,5 - 0,0
20.10.2018 11:00:00 13,3 7,7 10 5 14 7 S 1032,2 - 0,0
20.10.2018 10:00:00 11,5 8,4 6 4 11 6 SW 1032,0 - 0,0
20.10.2018 09:00:00 10,8 8,0 6 3 9 5 SW 1031,4 - 0,0
20.10.2018 08:00:00 10,9 8,1 6 3 9 5 SSW 1030,5 15 0,0
20.10.2018 07:00:00 10,6 8,0 5 3 8 5 SSW 1030,2 - 0,0
20.10.2018 06:00:00 10,8 7,8 7 4 8 5 S 1029,5 - 0,0
20.10.2018 05:00:00 11,2 7,9 5 3 8 5 S 1029,2 25 0,0
20.10.2018 04:00:00 11,4 7,7 5 3 11 6 S 1029,1 - 0,0
20.10.2018 03:00:00 12,8 7,0 5 3 16 8 NE 1028,9 - 0,0
20.10.2018 02:00:00 13,5 7,5 12 6 21 12 NE 1028,9 - 0,0
20.10.2018 01:00:00 13,6 7,4 16 9 22 12 NE 1028,8 - 0,0
20.10.2018 00:00:00 13,7 7,0 14 7 25 14 NNE 1028,2 - 0,0
19.10.2018 23:00:00 13,9 7,9 16 9 26 14 NNE 1028,2 25 0,0
19.10.2018 22:00:00 13,6 7,8 16 9 24 13 NNE 1028,3 - 0,0
19.10.2018 21:00:00 13,3 7,7 16 9 25 14 NE 1027,3 - 0,0
19.10.2018 20:00:00 13,5 8,1 18 10 27 14 NE 1026,9 15 0,0
19.10.2018 19:00:00 13,8 8,0 19 10 25 14 NNE 1026,2 - 0,0
19.10.2018 18:00:00 14,4 8,3 20 11 26 14 NE 1025,7 - 0,0
19.10.2018 17:00:00 15,0 8,5 18 10 24 13 NNE 1025,6 15 0,0
19.10.2018 16:00:00 15,4 9,5 15 8 22 12 NNE 1025,4 - 0,0
19.10.2018 15:00:00 15,7 10,0 16 9 21 11 NE 1025,3 - 0,0
19.10.2018 14:00:00 15,9 10,4 10 6 17 9 NE 1025,6 - 0,0
19.10.2018 13:00:00 15,5 9,4 14 8 19 10 ENE 1025,8 - 0,0
19.10.2018 12:00:00 14,1 10,3 13 7 22 12 ENE 1025,9 - 0,0
19.10.2018 11:00:00 13,8 10,8 11 6 27 14 ENE 1025,7 16 0,0
19.10.2018 10:00:00 13,8 10,8 22 12 29 16 ENE 1025,1 - 0,0
19.10.2018 09:00:00 13,9 11,1 22 12 28 15 ENE 1024,7 - 0,0
19.10.2018 08:00:00 13,8 10,4 17 9 21 12 NE 1024,5 - 0,0
19.10.2018 07:00:00 13,6 10,2 11 6 14 7 ENE 1024,6 - 0,0
19.10.2018 06:00:00 13,5 9,7 9 5 13 7 E 1024,7 - 0,0
19.10.2018 05:00:00 13,9 10,1 9 5 19 10 E 1024,6 20 0,0
19.10.2018 04:00:00 14,0 9,6 10 5 21 11 E 1024,7 - 0,0
19.10.2018 03:00:00 14,1 9,5 17 9 24 13 ENE 1024,8 - 0,0
19.10.2018 02:00:00 13,6 9,2 14 8 19 10 E 1024,9 - 0,0
19.10.2018 01:00:00 12,7 8,4 13 7 29 15 E 1025,1 - 0,0
19.10.2018 00:00:00 13,8 8,8 21 11 28 15 E 1025,2 - 0,0
18.10.2018 23:00:00 14,6 9,2 25 13 37 20 ENE 1025,3 20 0,0
18.10.2018 22:00:00 14,8 9,4 29 16 39 21 ENE 1025,4 - 0,0
18.10.2018 21:00:00 14,7 9,5 30 16 42 23 NE 1025,4 - 0,0
18.10.2018 20:00:00 14,6 9,2 31 17 41 22 NE 1025,1 10 0,0
18.10.2018 19:00:00 14,8 10,0 31 17 40 21 NE 1024,9 - 0,0
18.10.2018 18:00:00 15,1 9,0 29 16 41 22 NE 1024,9 - 0,0
18.10.2018 17:00:00 15,9 9,6 31 17 42 23 NE 1024,9 - 0,0
18.10.2018 16:00:00 15,9 9,8 30 16 44 24 NE 1025,3 - 0,0
18.10.2018 15:00:00 16,1 10,6 32 17 40 22 NE 1025,4 - 0,0
18.10.2018 14:00:00 16,0 10,7 29 16 40 22 NE 1025,5 - 0,0
18.10.2018 13:00:00 15,8 11,4 31 17 40 22 NE 1025,7 - 0,0
18.10.2018 12:00:00 15,8 12,0 30 16 41 22 NE 1025,6 - 0,0
18.10.2018 11:00:00 15,3 12,6 23 13 33 18 ENE 1025,2 12 0,0
18.10.2018 10:00:00 15,0 11,9 28 15 41 22 ENE 1024,7 - 0,0
18.10.2018 09:00:00 14,8 13,2 29 16 38 21 ENE 1024,2 - 0,0
18.10.2018 08:00:00 14,7 13,7 28 15 36 19 ENE 1023,9 - 0,0
18.10.2018 07:00:00 14,9 13,6 26 14 36 19 NE 1023,7 - 0,2
18.10.2018 06:00:00 14,6 13,5 30 16 37 20 NE 1023,6 - 0,0
18.10.2018 05:00:00 14,9 13,3 18 10 29 16 NNE 1023,4 14 0,0
18.10.2018 04:00:00 15,4 12,9 19 10 28 15 NNE 1023,2 - 0,0
18.10.2018 03:00:00 15,3 12,8 22 12 29 15 NE 1023,2 - 0,0
18.10.2018 02:00:00 15,2 12,5 18 10 23 13 NE 1023,2 - 0,0
18.10.2018 01:00:00 15,2 12,1 17 9 21 11 NE 1023,0 - 0,0
18.10.2018 00:00:00 15,1 12,4 10 5 15 8 NNE 1022,8 - 0,0
17.10.2018 23:00:00 15,2 12,3 11 6 17 9 NNE 1022,5 - 0,0
17.10.2018 22:00:00 15,1 12,2 11 6 17 9 NNE 1022,3 - 0,0
17.10.2018 21:00:00 15,3 12,4 11 6 16 9 NNE 1021,7 - 0,0
17.10.2018 20:00:00 15,3 12,2 12 6 16 9 NNE 1021,0 12 0,0
17.10.2018 19:00:00 15,5 11,9 10 5 14 8 NNE 1020,5 - 0,0
17.10.2018 18:00:00 16,4 12,2 9 5 12 6 NNE 1020,1 - 0,0
17.10.2018 17:00:00 16,8 12,1 9 5 13 7 N 1019,9 12 0,0
17.10.2018 16:00:00 16,9 12,0 9 5 12 7 N 1019,8 - 0,0
17.10.2018 15:00:00 17,0 12,3 7 4 13 7 NE 1019,7 - 0,0
17.10.2018 14:00:00 16,9 12,2 10 6 16 9 NNE 1019,7 12 0,0
17.10.2018 13:00:00 16,9 12,8 7 4 11 6 NNE 1019,8 - 0,0
17.10.2018 12:00:00 16,0 13,1 3 2 9 5 E 1019,9 - 0,0
17.10.2018 11:00:00 14,7 13,1 3 1 10 5 S 1019,8 7 0,0
17.10.2018 10:00:00 13,9 13,3 6 3 12 6 SSW 1019,5 - 0,0
17.10.2018 09:00:00 12,3 11,5 10 5 13 7 S 1019,2 - 0,0
17.10.2018 08:00:00 12,9 12,1 9 5 15 8 SSW 1018,9 7 0,0
17.10.2018 07:00:00 12,7 11,9 10 5 12 7 S 1018,5 - 0,0
17.10.2018 06:00:00 12,9 12,0 8 4 11 6 S 1018,3 - 0,0
17.10.2018 05:00:00 13,3 12,2 4 2 9 5 SW 1018,1 10 0,0
17.10.2018 04:00:00 13,9 12,6 8 4 11 6 SSW 1018,2 - 0,0
17.10.2018 03:00:00 14,0 12,6 4 2 12 6 SW 1018,1 - 0,0
17.10.2018 02:00:00 14,6 12,8 9 5 14 8 SSW 1018,2 15 0,0
17.10.2018 01:00:00 15,3 13,0 8 4 16 9 SSW 1018,3 - 0,0
17.10.2018 00:00:00 16,3 13,0 8 5 18 10 WSW 1018,2 - 0,0
16.10.2018 23:00:00 16,1 13,6 14 7 34 18 WSW 1018,4 - 0,0
16.10.2018 22:00:00 16,2 13,7 11 6 27 15 SW 1018,3 - 0,0
16.10.2018 21:00:00 16,5 14,3 18 10 29 16 W 1017,9 - 0,0
16.10.2018 20:00:00 17,1 14,6 11 6 19 11 W 1017,6 15 0,0
16.10.2018 19:00:00 17,3 13,8 7 4 16 9 WNW 1017,4 - 0,0
16.10.2018 18:00:00 17,8 13,9 11 6 15 8 NNW 1017,1 - 0,0
16.10.2018 17:00:00 18,6 13,7 10 5 17 9 NNW 1017,0 10 0,0
16.10.2018 16:00:00 20,2 12,4 10 5 23 13 N 1017,0 - 0,0

tt = Température de l'air
td = dewpoint
ff = Vitesse du vent
fx = gusts
dd = Direction du vent
ppp = reduced air pressure
vv = visibility
rr = Quantités de précipitations

stations d'obs. à proximité